{"data":{"norad_id":65415,"epoch":"2026-05-24T17:41:29.566464Z","epoch_age_seconds":94158,"freshness":"FRESH","line1":"1 65415U 25192M   26144.73714776  .00025726  00000+0  87772-3 0  9994","line2":"2 65415  53.1582 239.3831 0001069  82.1003 278.0119 15.30199809 41026","mean_motion":15.30199809,"eccentricity":0.0001069,"inclination_deg":53.1582,"raan_deg":239.3831,"arg_perigee_deg":82.1003,"mean_anomaly_deg":278.0119,"bstar":0.00087772,"rev_number":4102,"period_min":94.105357452701,"perigee_km":474.48301631377,"apogee_km":475.94826310814,"semimajor_km":6853.352639711,"source":"CELESTRAK","updated_at":"2026-05-25T13:38:20.801408Z"}}